Regional Weather Roundup
Issued by NWS Northern Indiana

Home | Current Version | Previous Version | Text Only | Print | Product List | Glossary Off
Versions: 1 2 3 4 5 6 7 8 9 10 11 12 13 14 15 16 17 18 19 20 21 22 23 24 25 26 27 28 29 30 31 32 33 34 35 36 37 38 39 40 41 42 43 44 45 46 47 48 49 50

000
ASUS43 KIWX 302300
RWRIWX

KIWX WEATHER ROUNDUP
NATIONAL WEATHER SERVICE NORTHERN INDIANA
700 PM EDT SAT APR 30 2016

NOTE: "FAIR" INDICATES FEW OR NO CLOUDS BELOW 12,000 FEET WITH NO
SIGNIFICANT WEATHER AND/OR OBSTRUCTIONS TO VISIBILITY.

* THESE STATIONS ARE NOT UNDER NWS QUALITY CONTROL. THEY ALSO MAY NOT
  REPORT WEATHER SUCH AS PRECIPITATION OR FOG.

INZ001>027-010000-
NORTHERN INDIANA

CITY           SKY/WX    TMP DP  RH WIND       PRES   REMARKS
GARY*          RAIN      48  48 100 E18       29.90S
VALPARAISO     LGT RAIN  48  47  96 E14       29.89F FOG
SOUTH BEND     LGT RAIN  47  45  93 E14       29.92F FOG
GOSHEN         LGT RAIN  48  45  89 E14G24    29.91F FOG
ANGOLA*        CLOUDY    46  36  66 E12       29.95F
FORT WAYNE     LGT RAIN  50  48  93 E12       29.92S

$$
INZ028>050-010000-
CENTRAL INDIANA

CITY           SKY/WX    TMP DP  RH WIND       PRES   REMARKS
LAFAYETTE      CLOUDY    54  53  97 E8        29.84S
KOKOMO*        CLOUDY    52  48  87 E10       29.87F
MUNCIE*        CLOUDY    57  53  86 SE9       29.87F
INDIANAPOLIS   CLOUDY    60  57  89 SE13G22   29.84R

$$
MIZ043>046-050>051-056>058-064>065-071>073-077>080-010000-
SOUTHWEST LOWER MICHIGAN

CITY           SKY/WX    TMP DP  RH WIND       PRES   REMARKS
BATTLE CREEK   LGT RAIN  48  45  89 E13       29.99F FOG
BENTON HARBOR  LGT RAIN  48  45  89 NE12      29.94F FOG
COLDWATER*     LGT RAIN  48  46  93 E13       29.98S
HILLSDALE*     LGT RAIN  47  46  98 E14       29.98F
HOLLAND        LGT RAIN  49  44  83 E8        30.00S
GRAND RAPIDS   LGT RAIN  50  44  80 E9        30.02S
KALAMAZOO      RAIN      49  45  86 E8        29.98F FOG
STURGIS*       LGT RAIN  46  45  97 E13G18    29.94F
THREE RIVERS*  LGT RAIN  48  46  94 E10       29.96F

$$
OHZ001>008-015>018-024>025-010000-
NORTHWEST OHIO

CITY           SKY/WX    TMP DP  RH WIND       PRES   REMARKS
DEFIANCE       LGT RAIN  49  45  86 E12G22    29.96F FOG
FINDLAY        LGT RAIN  51  46  83 E13       29.97F
TOLEDO EXPRESS LGT RAIN  47  45  93 E14       30.01F FOG
TOLEDO METCALF LGT RAIN  47  44  90 E12       30.04S FOG
LIMA           LGT RAIN  51  50  96 E12       29.96F FOG

$$
AND FOR LAKE MICHIGAN COASTAL AND OPEN LAKE BUOY OBSERVATIONS

STATION/POSITION TEMP    WIND        PRES    VSBY  WAVE
                 AIR SEA DIR/SP/G                  HT/PER
                 (F)     (DEG/KT/KT) (MB)    (MI)  (FT/S)
CALUMET HARBOR    45                 1012.1F
MICHIGAN CITY     48      40/ 12/ 13   N/A
BURNS HARBOR      48      60/ 16/ 18 1012.9F
SAINT JOSEPH      47      30/  5/ 11 1014.6R
SOUTH LAKE BUOY   43 40   70/ 12/ 14 1015.6          1/ 3
4 MI NW BRIDGMAN  48 47                N/A           2/ 3

$$
&&




USA.gov is the U.S. government's official web portal to all federal, state and local government web resources and services.